| time (UTC) | temp C | wind direction | speed KPH | gust KPH | rain 1hr cm | rain 24hr cm | rain mn cm | humidity % | barometer mb |
| 20260906021017 | 14 | 0 | 0.0 | 4.8 | 0.03 | 0.18 | 0.18 | 87 | 1026.0 |
| 20260906020518 | 14 | 0 | 0.0 | 4.8 | 0.03 | 0.18 | 0.18 | 87 | 1025.9 |
| 20260906020044 | 14 | 289 | 0.0 | 4.8 | 0.03 | 0.18 | 0.18 | 87 | 1025.9 |
| 20260906015519 | 14 | 0 | 0.0 | 6.4 | 0.05 | 0.18 | 0.18 | 87 | 1026.0 |
| 20260906015016 | 14 | 286 | 1.6 | 6.4 | 0.05 | 0.18 | 0.18 | 87 | 1026.1 |
| 20260906014549 | 14 | 284 | 1.6 | 6.4 | 0.03 | 0.15 | 0.15 | 87 | 1026.1 |
| 20260906014023 | 14 | 0 | 1.6 | 4.8 | 0.03 | 0.15 | 0.15 | 88 | 1026.1 |
| 20260906013519 | 14 | 0 | 0.0 | 3.2 | 0.00 | 0.13 | 0.13 | 88 | 1026.1 |
| 20260906013033 | 14 | 0 | 0.0 | 3.2 | 0.00 | 0.13 | 0.13 | 88 | 1026.0 |
| 20260906012517 | 13 | 0 | 0.0 | 4.8 | 0.00 | 0.13 | 0.13 | 88 | 1026.3 |
| 20260906012017 | 13 | 0 | 0.0 | 4.8 | 0.00 | 0.13 | 0.13 | 88 | 1026.3 |
| 20260906011538 | 13 | 0 | 0.0 | 3.2 | 0.00 | 0.13 | 0.13 | 88 | 1026.3 |
| 20260906011015 | 13 | 283 | 0.0 | 4.8 | 0.00 | 0.13 | 0.13 | 88 | 1026.4 |
| 20260906010518 | 13 | 283 | 0.0 | 6.4 | 0.00 | 0.13 | 0.13 | 88 | 1026.3 |
| 20260906010035 | 14 | 283 | 1.6 | 6.4 | 0.00 | 0.10 | 0.10 | 88 | 1026.3 |
| 20260906005519 | 14 | 284 | 0.0 | 4.8 | 0.00 | 0.10 | 0.10 | 89 | 1026.3 |
| 20260906005023 | 14 | 0 | 0.0 | 6.4 | 0.00 | 0.10 | 0.10 | 89 | 1026.2 |
| 20260906004538 | 13 | 0 | 0.0 | 6.4 | 0.00 | 0.10 | 0.10 | 89 | 1026.2 |
| 20260906004022 | 13 | 286 | 0.0 | 6.4 | 0.00 | 0.10 | 0.10 | 89 | 1026.1 |
| 20260906003519 | 13 | 0 | 0.0 | 6.4 | 0.00 | 0.10 | 0.10 | 89 | 1026.2 |
| 20260906003048 | 13 | 284 | 1.6 | 6.4 | 0.00 | 0.10 | 0.10 | 89 | 1026.2 |
| 20260906002516 | 13 | 0 | 0.0 | 0.0 | 0.00 | 0.13 | 0.10 | 90 | 1026.1 |
| 20260906002018 | 13 | 0 | 0.0 | 0.0 | 0.00 | 0.13 | 0.10 | 90 | 1026.1 |
| 20260906001535 | 13 | 0 | 0.0 | 0.0 | 0.00 | 0.13 | 0.10 | 89 | 1026.1 |
| 20260906001018 | 13 | 0 | 0.0 | 0.0 | 0.00 | 0.13 | 0.10 | 89 | 1026.1 |
| 20260906000520 | 13 | 0 | 0.0 | 0.0 | 0.00 | 0.13 | 0.10 | 89 | 1026.2 |
| 20260906000036 | 13 | 0 | 0.0 | 3.2 | 0.00 | 0.13 | 0.10 | 89 | 1026.2 |
| 20260905235520 | 12 | 0 | 0.0 | 3.2 | 0.00 | 0.13 | 0.10 | 89 | 1026.1 |
| 20260905235019 | 12 | 281 | 0.0 | 3.2 | 0.00 | 0.13 | 0.10 | 89 | 1026.1 |
| 20260905234534 | 12 | 0 | 0.0 | 3.2 | 0.00 | 0.13 | 0.10 | 89 | 1026.1 |
| 20260905234023 | 12 | 0 | 0.0 | 1.6 | 0.00 | 0.13 | 0.10 | 89 | 1025.9 |
| 20260905233519 | 12 | 0 | 0.0 | 3.2 | 0.03 | 0.13 | 0.10 | 89 | 1025.8 |
| 20260905233035 | 12 | 0 | 0.0 | 3.2 | 0.03 | 0.13 | 0.10 | 89 | 1025.7 |
| 20260905232515 | 12 | 0 | 0.0 | 1.6 | 0.03 | 0.25 | 0.10 | 89 | 1025.6 |
| 20260905232022 | 12 | 0 | 0.0 | 1.6 | 0.03 | 0.25 | 0.10 | 89 | 1025.6 |
| 20260905231539 | 12 | 0 | 0.0 | 3.2 | 0.03 | 0.25 | 0.10 | 89 | 1025.6 |
| 20260905231018 | 12 | 0 | 0.0 | 3.2 | 0.05 | 0.25 | 0.10 | 89 | 1025.5 |
| 20260905230518 | 12 | 0 | 0.0 | 0.0 | 0.05 | 0.25 | 0.10 | 89 | 1025.5 |
| 20260905230035 | 12 | 0 | 0.0 | 0.0 | 0.05 | 0.25 | 0.10 | 89 | 1025.3 |
| 20260905225517 | 12 | 0 | 0.0 | 1.6 | 0.05 | 0.25 | 0.10 | 88 | 1025.3 |
| 20260905225016 | 12 | 0 | 0.0 | 1.6 | 0.03 | 0.23 | 0.08 | 88 | 1025.2 |
| 20260905224534 | 12 | 0 | 0.0 | 1.6 | 0.03 | 0.23 | 0.08 | 88 | 1025.2 |
| 20260905224015 | 12 | 0 | 0.0 | 3.2 | 0.03 | 0.23 | 0.08 | 88 | 1025.1 |
| 20260905223518 | 12 | 0 | 0.0 | 3.2 | 0.00 | 0.20 | 0.08 | 88 | 1025.2 |
| 20260905223032 | 12 | 0 | 0.0 | 4.8 | 0.00 | 0.20 | 0.08 | 88 | 1025.1 |
| 20260905222519 | 12 | 291 | 1.6 | 4.8 | 0.00 | 0.20 | 0.08 | 88 | 1025.0 |
| 20260905222015 | 11 | 291 | 0.0 | 3.2 | 0.00 | 0.20 | 0.08 | 88 | 1025.0 |
| 20260905221537 | 11 | 0 | 0.0 | 1.6 | 0.00 | 0.18 | 0.05 | 88 | 1024.9 |
| 20260905221018 | 11 | 0 | 0.0 | 1.6 | 0.00 | 0.18 | 0.05 | 88 | 1024.8 |
| 20260905220520 | 11 | 0 | 0.0 | 1.6 | 0.00 | 0.18 | 0.05 | 88 | 1024.7 |
| 20260905220041 | 11 | 0 | 0.0 | 1.6 | 0.00 | 0.18 | 0.05 | 88 | 1024.7 |
| 20260905215519 | 11 | 0 | 0.0 | 0.0 | 0.00 | 0.18 | 0.05 | 88 | 1024.6 |
| 20260905215036 | 11 | 0 | 0.0 | 0.0 | 0.00 | 0.18 | 0.05 | 88 | 1024.5 |
| 20260905214535 | 11 | 0 | 0.0 | 1.6 | 0.00 | 0.18 | 0.05 | 87 | 1024.5 |
| 20260905214016 | 11 | 0 | 0.0 | 1.6 | 0.00 | 0.18 | 0.05 | 87 | 1024.5 |
| 20260905213520 | 11 | 0 | 0.0 | 1.6 | 0.00 | 0.18 | 0.05 | 87 | 1024.4 |
| 20260905213040 | 11 | 0 | 0.0 | 0.0 | 0.00 | 0.18 | 0.05 | 87 | 1024.3 |
| 20260905212524 | 11 | 0 | 0.0 | 0.0 | 0.00 | 0.18 | 0.05 | 87 | 1024.2 |
| 20260905212017 | 11 | 0 | 0.0 | 0.0 | 0.00 | 0.18 | 0.05 | 87 | 1024.1 |
| 20260905211539 | 11 | 0 | 0.0 | 0.0 | 0.00 | 0.18 | 0.05 | 87 | 1023.9 |
| 20260905211023 | 11 | 0 | 0.0 | 0.0 | 0.00 | 0.18 | 0.05 | 87 | 1023.7 |
| 20260905210522 | 11 | 0 | 0.0 | 0.0 | 0.00 | 0.18 | 0.05 | 87 | 1023.7 |
| 20260905210031 | 11 | 0 | 0.0 | 1.6 | 0.00 | 0.18 | 0.05 | 87 | 1023.7 |
| 20260905205522 | 11 | 0 | 0.0 | 1.6 | 0.00 | 0.18 | 0.05 | 87 | 1023.6 |
| 20260905205018 | 11 | 0 | 0.0 | 1.6 | 0.00 | 0.18 | 0.05 | 87 | 1023.6 |
| 20260905204533 | 10 | 0 | 0.0 | 1.6 | 0.00 | 0.18 | 0.05 | 87 | 1023.4 |
| 20260905204015 | 10 | 0 | 0.0 | 1.6 | 0.00 | 0.18 | 0.03 | 87 | 1023.5 |
| 20260905203520 | 10 | 0 | 0.0 | 1.6 | 0.00 | 0.18 | 0.03 | 87 | 1023.6 |
| 20260905203034 | 10 | 0 | 0.0 | 0.0 | 0.00 | 0.18 | 0.03 | 86 | 1023.5 |
| 20260905202518 | 10 | 0 | 0.0 | 0.0 | 0.00 | 0.18 | 0.03 | 86 | 1023.5 |
| 20260905202016 | 10 | 0 | 0.0 | 0.0 | 0.00 | 0.18 | 0.03 | 86 | 1023.3 |
| 20260905201538 | 10 | 0 | 0.0 | 4.8 | 0.00 | 0.18 | 0.03 | 86 | 1023.2 |
| 20260905201022 | 10 | 0 | 0.0 | 4.8 | 0.00 | 0.18 | 0.03 | 86 | 1023.3 |
| 20260905200519 | 10 | 0 | 0.0 | 0.0 | 0.00 | 0.18 | 0.03 | 86 | 1023.2 |
| 20260905200050 | 10 | 0 | 0.0 | 0.0 | 0.00 | 0.18 | 0.03 | 86 | 1023.2 |
| 20260905195520 | 10 | 0 | 0.0 | 0.0 | 0.00 | 0.18 | 0.03 | 86 | 1023.0 |
| 20260905195023 | 10 | 0 | 0.0 | 0.0 | 0.00 | 0.18 | 0.03 | 86 | 1022.8 |
| 20260905194541 | 10 | 0 | 0.0 | 0.0 | 0.00 | 0.18 | 0.03 | 86 | 1022.8 |
| 20260905194020 | 10 | 0 | 0.0 | 0.0 | 0.00 | 0.18 | 0.03 | 86 | 1022.9 |
| 20260905193517 | 10 | 0 | 0.0 | 0.0 | 0.00 | 0.18 | 0.03 | 86 | 1023.0 |
| 20260905193033 | 10 | 0 | 0.0 | 0.0 | 0.00 | 0.18 | 0.03 | 85 | 1022.9 |
| 20260905192518 | 10 | 0 | 0.0 | 0.0 | 0.00 | 0.18 | 0.03 | 85 | 1022.9 |
| 20260905192015 | 10 | 0 | 0.0 | 0.0 | 0.00 | 0.18 | 0.03 | 86 | 1022.9 |
| 20260905191534 | 10 | 0 | 0.0 | 0.0 | 0.00 | 0.18 | 0.03 | 86 | 1022.8 |
| 20260905191016 | 11 | 0 | 0.0 | 0.0 | 0.00 | 0.18 | 0.03 | 85 | 1022.8 |
| 20260905190518 | 11 | 0 | 0.0 | 0.0 | 0.00 | 0.18 | 0.03 | 85 | 1022.7 |
| 20260905190036 | 11 | 0 | 0.0 | 0.0 | 0.00 | 0.18 | 0.03 | 86 | 1022.7 |
| 20260905185515 | 11 | 0 | 0.0 | 0.0 | 0.00 | 0.18 | 0.03 | 86 | 1022.7 |
| 20260905185019 | 11 | 0 | 0.0 | 0.0 | 0.00 | 0.18 | 0.03 | 86 | 1022.7 |
| 20260905184535 | 11 | 0 | 0.0 | 0.0 | 0.00 | 0.18 | 0.03 | 86 | 1022.7 |
| 20260905184016 | 11 | 0 | 0.0 | 0.0 | 0.00 | 0.18 | 0.03 | 85 | 1022.6 |
| 20260905183519 | 11 | 0 | 0.0 | 0.0 | 0.00 | 0.18 | 0.03 | 85 | 1022.5 |
| 20260905183034 | 11 | 0 | 0.0 | 0.0 | 0.00 | 0.18 | 0.03 | 85 | 1022.3 |
| 20260905182518 | 11 | 0 | 0.0 | 0.0 | 0.00 | 0.18 | 0.03 | 86 | 1022.1 |
| 20260905182016 | 11 | 0 | 0.0 | 1.6 | 0.00 | 0.18 | 0.03 | 86 | 1022.3 |
| 20260905181538 | 11 | 0 | 0.0 | 1.6 | 0.00 | 0.18 | 0.03 | 86 | 1022.2 |
| 20260905181015 | 11 | 281 | 0.0 | 0.0 | 0.00 | 0.18 | 0.03 | 86 | 1022.1 |
| 20260905180518 | 11 | 0 | 0.0 | 0.0 | 0.00 | 0.18 | 0.03 | 86 | 1022.0 |
| 20260905180034 | 11 | 0 | 0.0 | 0.0 | 0.00 | 0.18 | 0.03 | 85 | 1022.0 |
| 20260905175523 | 11 | 0 | 0.0 | 0.0 | 0.00 | 0.18 | 0.03 | 85 | 1022.1 |
| 20260905175020 | 11 | 0 | 0.0 | 0.0 | 0.00 | 0.18 | 0.03 | 85 | 1022.1 |
| 20260905174535 | 11 | 0 | 0.0 | 4.8 | 0.00 | 0.18 | 0.03 | 85 | 1022.1 |
| 20260905174019 | 11 | 0 | 0.0 | 4.8 | 0.00 | 0.18 | 0.03 | 85 | 1022.2 |
| 20260905173520 | 11 | 0 | 0.0 | 4.8 | 0.00 | 0.18 | 0.03 | 85 | 1022.1 |
| 20260905173033 | 11 | 0 | 0.0 | 4.8 | 0.00 | 0.18 | 0.03 | 85 | 1022.3 |
| 20260905172516 | 11 | 281 | 0.0 | 3.2 | 0.00 | 0.18 | 0.03 | 85 | 1022.2 |
| 20260905172017 | 11 | 0 | 0.0 | 0.0 | 0.00 | 0.18 | 0.03 | 85 | 1022.1 |
| 20260905171533 | 11 | 0 | 0.0 | 3.2 | 0.00 | 0.18 | 0.03 | 85 | 1022.3 |
| 20260905171015 | 11 | 0 | 0.0 | 12.9 | 0.00 | 0.18 | 0.03 | 85 | 1022.3 |
| 20260905170518 | 11 | 284 | 0.0 | 12.9 | 0.00 | 0.18 | 0.03 | 85 | 1022.5 |
| 20260905170031 | 12 | 284 | 3.2 | 12.9 | 0.00 | 0.18 | 0.03 | 85 | 1022.6 |
| 20260905165520 | 12 | 244 | 3.2 | 11.3 | 0.00 | 0.18 | 0.03 | 85 | 1022.8 |
| 20260905165020 | 11 | 257 | 0.0 | 4.8 | 0.00 | 0.18 | 0.03 | 84 | 1022.5 |
| 20260905164535 | 12 | 0 | 0.0 | 1.6 | 0.00 | 0.18 | 0.03 | 84 | 1022.7 |
| 20260905164018 | 12 | 0 | 0.0 | 1.6 | 0.00 | 0.18 | 0.03 | 84 | 1022.6 |
| 20260905163521 | 12 | 0 | 0.0 | 0.0 | 0.03 | 0.18 | 0.03 | 84 | 1022.6 |
| 20260905163033 | 12 | 0 | 0.0 | 1.6 | 0.03 | 0.18 | 0.03 | 84 | 1022.6 |
| 20260905162521 | 12 | 0 | 0.0 | 1.6 | 0.03 | 0.18 | 0.03 | 84 | 1022.7 |
| 20260905162017 | 12 | 0 | 0.0 | 0.0 | 0.03 | 0.18 | 0.03 | 84 | 1022.6 |
| 20260905161535 | 12 | 0 | 0.0 | 0.0 | 0.03 | 0.18 | 0.03 | 84 | 1022.5 |
| 20260905161017 | 12 | 0 | 0.0 | 1.6 | 0.03 | 0.18 | 0.03 | 84 | 1022.7 |
| 20260905160521 | 12 | 0 | 0.0 | 3.2 | 0.03 | 0.18 | 0.03 | 84 | 1022.6 |
| 20260905160044 | 12 | 0 | 0.0 | 4.8 | 0.03 | 0.18 | 0.03 | 84 | 1022.6 |
| 20260905155519 | 12 | 0 | 0.0 | 6.4 | 0.03 | 0.18 | 0.03 | 84 | 1022.7 |
| 20260905155016 | 12 | 0 | 0.0 | 12.9 | 0.03 | 0.18 | 0.03 | 84 | 1022.7 |
| 20260905154533 | 12 | 265 | 3.2 | 14.5 | 0.00 | 0.15 | 0.00 | 84 | 1022.9 |
| 20260905154019 | 12 | 273 | 4.8 | 14.5 | 0.00 | 0.13 | 0.00 | 84 | 1022.9 |
| 20260905153516 | 12 | 275 | 3.2 | 9.7 | 0.00 | 0.13 | 0.00 | 84 | 1023.0 |
| 20260905153038 | 12 | 0 | 0.0 | 4.8 | 0.00 | 0.13 | 0.00 | 83 | 1023.0 |
| 20260905152518 | 12 | 277 | 1.6 | 9.7 | 0.00 | 0.13 | 0.00 | 83 | 1023.0 |
| 20260905152016 | 12 | 0 | 1.6 | 9.7 | 0.00 | 0.13 | 0.00 | 83 | 1022.9 |
| 20260905151536 | 12 | 276 | 1.6 | 6.4 | 0.00 | 0.13 | 0.00 | 83 | 1022.9 |
| 20260905151020 | 12 | 0 | 1.6 | 6.4 | 0.00 | 0.13 | 0.00 | 83 | 1022.7 |
| 20260905150516 | 12 | 278 | 0.0 | 9.7 | 0.00 | 0.13 | 0.00 | 83 | 1022.7 |
| 20260905150036 | 12 | 0 | 0.0 | 9.7 | 0.00 | 0.13 | 0.00 | 83 | 1022.8 |
| 20260905145521 | 12 | 0 | 0.0 | 4.8 | 0.00 | 0.13 | 0.00 | 83 | 1022.6 |
| 20260905145019 | 12 | 0 | 0.0 | 4.8 | 0.00 | 0.13 | 0.00 | 83 | 1022.7 |
| 20260905144541 | 12 | 0 | 0.0 | 3.2 | 0.00 | 0.13 | 0.00 | 83 | 1022.6 |
| 20260905144016 | 12 | 0 | 0.0 | 4.8 | 0.00 | 0.13 | 0.00 | 83 | 1022.6 |
| 20260905143516 | 12 | 285 | 0.0 | 6.4 | 0.00 | 0.13 | 0.00 | 83 | 1022.7 |
| 20260905143047 | 12 | 284 | 1.6 | 11.3 | 0.00 | 0.13 | 0.00 | 82 | 1022.7 |
| 20260905142517 | 13 | 286 | 1.6 | 12.9 | 0.00 | 0.13 | 0.13 | 82 | 1022.6 |
| 20260905142015 | 13 | 291 | 3.2 | 12.9 | 0.00 | 0.13 | 0.13 | 82 | 1022.8 |
| 20260905141536 | 13 | 302 | 1.6 | 12.9 | 0.00 | 0.13 | 0.13 | 82 | 1022.8 |
| 20260905141021 | 13 | 304 | 3.2 | 12.9 | 0.00 | 0.13 | 0.13 | 82 | 1022.7 |
| 20260905140519 | 13 | 296 | 1.6 | 6.4 | 0.00 | 0.13 | 0.13 | 82 | 1022.7 |
| 20260905140035 | 13 | 296 | 3.2 | 6.4 | 0.00 | 0.13 | 0.13 | 82 | 1022.6 |
| 20260905135516 | 13 | 297 | 1.6 | 8.0 | 0.00 | 0.13 | 0.13 | 82 | 1022.6 |
| 20260905135019 | 13 | 298 | 0.0 | 9.7 | 0.00 | 0.13 | 0.13 | 81 | 1022.7 |
| 20260905134534 | 13 | 298 | 1.6 | 11.3 | 0.00 | 0.13 | 0.13 | 81 | 1022.8 |
| 20260905134016 | 12 | 298 | 3.2 | 11.3 | 0.00 | 0.13 | 0.13 | 81 | 1022.8 |
| 20260905133517 | 12 | 271 | 1.6 | 6.4 | 0.00 | 0.13 | 0.13 | 81 | 1022.6 |
| 20260905133033 | 12 | 271 | 1.6 | 6.4 | 0.00 | 0.13 | 0.13 | 81 | 1022.5 |
| 20260905132519 | 13 | 271 | 0.0 | 6.4 | 0.00 | 0.13 | 0.13 | 81 | 1022.6 |
| 20260905132022 | 13 | 271 | 1.6 | 14.5 | 0.00 | 0.13 | 0.13 | 80 | 1022.6 |
| 20260905131546 | 13 | 272 | 1.6 | 14.5 | 0.00 | 0.13 | 0.13 | 80 | 1022.4 |
| 20260905131021 | 13 | 277 | 3.2 | 9.7 | 0.00 | 0.13 | 0.13 | 80 | 1022.5 |
| 20260905130519 | 13 | 0 | 1.6 | 6.4 | 0.00 | 0.13 | 0.13 | 80 | 1022.4 |
| 20260905130034 | 13 | 0 | 1.6 | 12.9 | 0.00 | 0.13 | 0.13 | 80 | 1022.4 |
| 20260905125522 | 13 | 273 | 3.2 | 12.9 | 0.00 | 0.13 | 0.13 | 80 | 1022.4 |
| 20260905125016 | 13 | 280 | 3.2 | 12.9 | 0.00 | 0.13 | 0.13 | 79 | 1022.3 |
| 20260905124537 | 13 | 281 | 1.6 | 12.9 | 0.00 | 0.13 | 0.13 | 79 | 1022.3 |
| 20260905124021 | 13 | 277 | 1.6 | 4.8 | 0.00 | 0.13 | 0.13 | 79 | 1022.2 |
| 20260905123516 | 13 | 0 | 0.0 | 6.4 | 0.00 | 0.13 | 0.13 | 79 | 1022.3 |
| 20260905123032 | 13 | 277 | 1.6 | 9.7 | 0.00 | 0.13 | 0.13 | 79 | 1022.1 |
| 20260905122519 | 13 | 275 | 1.6 | 9.7 | 0.00 | 0.13 | 0.13 | 78 | 1022.0 |
| 20260905122019 | 13 | 275 | 3.2 | 11.3 | 0.00 | 0.13 | 0.13 | 78 | 1022.0 |
| 20260905121531 | 13 | 275 | 1.6 | 11.3 | 0.00 | 0.13 | 0.13 | 78 | 1021.9 |
| 20260905121023 | 13 | 0 | 3.2 | 11.3 | 0.00 | 0.13 | 0.13 | 78 | 1021.8 |
| 20260905120520 | 13 | 271 | 3.2 | 11.3 | 0.00 | 0.13 | 0.13 | 77 | 1021.9 |
| 20260905120034 | 13 | 267 | 1.6 | 12.9 | 0.00 | 0.13 | 0.13 | 77 | 1021.8 |
| 20260905115517 | 13 | 265 | 1.6 | 12.9 | 0.00 | 0.13 | 0.13 | 77 | 1021.8 |
| 20260905115018 | 13 | 284 | 1.6 | 11.3 | 0.00 | 0.13 | 0.13 | 77 | 1021.8 |
| 20260905114542 | 13 | 0 | 3.2 | 12.9 | 0.00 | 0.13 | 0.13 | 77 | 1021.6 |
| 20260905114020 | 13 | 281 | 3.2 | 12.9 | 0.00 | 0.13 | 0.13 | 77 | 1021.6 |
| 20260905113518 | 13 | 292 | 4.8 | 12.9 | 0.00 | 0.13 | 0.13 | 77 | 1021.6 |
| 20260905113038 | 13 | 259 | 1.6 | 12.9 | 0.00 | 0.13 | 0.13 | 76 | 1021.6 |
| 20260905112516 | 13 | 269 | 0.0 | 11.3 | 0.00 | 0.13 | 0.13 | 76 | 1021.6 |
| 20260905112018 | 13 | 269 | 3.2 | 11.3 | 0.00 | 0.13 | 0.13 | 76 | 1021.5 |
| 20260905111533 | 13 | 0 | 1.6 | 4.8 | 0.00 | 0.13 | 0.13 | 75 | 1021.4 |
| 20260905111015 | 13 | 0 | 0.0 | 4.8 | 0.00 | 0.13 | 0.13 | 75 | 1021.4 |
| 20260905110518 | 13 | 238 | 0.0 | 4.8 | 0.00 | 0.13 | 0.13 | 75 | 1021.4 |
| 20260905110035 | 13 | 238 | 0.0 | 11.3 | 0.00 | 0.13 | 0.13 | 74 | 1021.3 |
| 20260905105517 | 13 | 236 | 1.6 | 12.9 | 0.00 | 0.13 | 0.13 | 74 | 1021.3 |
| 20260905105019 | 13 | 0 | 1.6 | 12.9 | 0.00 | 0.13 | 0.13 | 74 | 1021.2 |
| 20260905104532 | 13 | 262 | 1.6 | 6.4 | 0.00 | 0.13 | 0.13 | 73 | 1021.2 |
| 20260905104018 | 13 | 0 | 0.0 | 11.3 | 0.00 | 0.13 | 0.13 | 73 | 1021.1 |
| 20260905103516 | 13 | 0 | 3.2 | 14.5 | 0.00 | 0.13 | 0.13 | 73 | 1021.1 |
| 20260905103033 | 13 | 260 | 1.6 | 14.5 | 0.00 | 0.13 | 0.13 | 73 | 1021.0 |
| 20260905102515 | 13 | 261 | 4.8 | 14.5 | 0.00 | 0.13 | 0.13 | 73 | 1020.9 |
| 20260905102021 | 13 | 219 | 3.2 | 14.5 | 0.00 | 0.13 | 0.13 | 73 | 1020.7 |
| 20260905101542 | 13 | 257 | 1.6 | 11.3 | 0.00 | 0.13 | 0.13 | 72 | 1020.8 |
| 20260905101016 | 13 | 283 | 1.6 | 12.9 | 0.00 | 0.13 | 0.13 | 72 | 1020.6 |
| 20260905100517 | 13 | 277 | 3.2 | 12.9 | 0.00 | 0.13 | 0.13 | 72 | 1020.5 |
| 20260905100034 | 13 | 250 | 3.2 | 12.9 | 0.00 | 0.13 | 0.13 | 72 | 1020.5 |
| 20260905095519 | 13 | 246 | 3.2 | 11.3 | 0.00 | 0.13 | 0.13 | 72 | 1020.4 |
| 20260905095020 | 13 | 252 | 3.2 | 11.3 | 0.00 | 0.13 | 0.13 | 72 | 1020.2 |
| 20260905094532 | 13 | 257 | 3.2 | 14.5 | 0.00 | 0.13 | 0.13 | 71 | 1020.0 |
| 20260905094021 | 13 | 227 | 3.2 | 14.5 | 0.00 | 0.13 | 0.13 | 71 | 1019.9 |
| 20260905093517 | 13 | 269 | 3.2 | 11.3 | 0.00 | 0.13 | 0.13 | 71 | 1019.9 |
| 20260905093036 | 13 | 213 | 3.2 | 11.3 | 0.00 | 0.13 | 0.13 | 71 | 1019.9 |
| 20260905092515 | 14 | 265 | 3.2 | 11.3 | 0.00 | 0.13 | 0.13 | 70 | 1019.9 |
| 20260905092016 | 14 | 236 | 3.2 | 12.9 | 0.00 | 0.13 | 0.13 | 70 | 1019.8 |
| 20260905091532 | 14 | 264 | 3.2 | 16.1 | 0.00 | 0.13 | 0.13 | 69 | 1019.7 |
| 20260905091017 | 14 | 259 | 3.2 | 16.1 | 0.00 | 0.13 | 0.13 | 69 | 1019.5 |
| 20260905090519 | 14 | 263 | 6.4 | 16.1 | 0.00 | 0.13 | 0.13 | 68 | 1019.5 |
| 20260905090037 | 14 | 183 | 4.8 | 17.7 | 0.00 | 0.13 | 0.13 | 68 | 1019.5 |
| 20260905085521 | 14 | 232 | 6.4 | 17.7 | 0.00 | 0.13 | 0.13 | 68 | 1019.4 |
| 20260905085021 | 14 | 261 | 3.2 | 16.1 | 0.00 | 0.13 | 0.13 | 67 | 1019.3 |
| 20260905084534 | 15 | 248 | 6.4 | 16.1 | 0.00 | 0.13 | 0.13 | 66 | 1019.1 |
| 20260905084016 | 15 | 269 | 4.8 | 20.9 | 0.00 | 0.13 | 0.13 | 65 | 1019.2 |
| 20260905083516 | 15 | 290 | 6.4 | 22.5 | 0.00 | 0.13 | 0.13 | 65 | 1018.8 |
| 20260905083037 | 15 | 273 | 8.0 | 22.5 | 0.00 | 0.13 | 0.13 | 65 | 1018.8 |
| 20260905082517 | 15 | 209 | 6.4 | 19.3 | 0.00 | 0.15 | 0.13 | 65 | 1018.8 |
| 20260905082016 | 15 | 296 | 8.0 | 19.3 | 0.00 | 0.15 | 0.13 | 65 | 1018.5 |
| 20260905081535 | 15 | 273 | 4.8 | 25.7 | 0.00 | 0.15 | 0.13 | 65 | 1018.4 |
| 20260905081020 | 15 | 345 | 8.0 | 25.7 | 0.00 | 0.15 | 0.13 | 66 | 1018.3 |
| 20260905080519 | 15 | 267 | 4.8 | 14.5 | 0.00 | 0.15 | 0.13 | 66 | 1018.1 |
| 20260905080041 | 15 | 212 | 3.2 | 17.7 | 0.00 | 0.15 | 0.13 | 66 | 1018.2 |
| 20260905075519 | 15 | 261 | 6.4 | 24.1 | 0.00 | 0.15 | 0.13 | 65 | 1017.9 |
| 20260905075017 | 15 | 360 | 8.0 | 24.1 | 0.00 | 0.15 | 0.13 | 65 | 1017.7 |
| 20260905074534 | 15 | 304 | 11.3 | 24.1 | 0.00 | 0.15 | 0.13 | 64 | 1017.9 |
| 20260905074018 | 15 | 277 | 8.0 | 24.1 | 0.00 | 0.15 | 0.13 | 64 | 1017.7 |
| 20260905073517 | 15 | 251 | 8.0 | 24.1 | 0.00 | 0.15 | 0.13 | 64 | 1017.7 |
| 20260905073037 | 15 | 257 | 6.4 | 27.4 | 0.00 | 0.15 | 0.13 | 64 | 1017.5 |
| 20260905072517 | 15 | 259 | 6.4 | 27.4 | 0.00 | 0.15 | 0.13 | 64 | 1017.4 |
| 20260905072017 | 15 | 275 | 11.3 | 27.4 | 0.00 | 0.15 | 0.13 | 63 | 1017.4 |
| 20260905071533 | 16 | 164 | 9.7 | 25.7 | 0.00 | 0.15 | 0.13 | 63 | 1017.4 |
| 20260905071016 | 16 | 309 | 12.9 | 25.7 | 0.00 | 0.15 | 0.13 | 62 | 1017.4 |
| 20260905070518 | 16 | 244 | 8.0 | 24.1 | 0.00 | 0.15 | 0.13 | 63 | 1017.3 |
| 20260905070038 | 16 | 269 | 9.7 | 24.1 | 0.00 | 0.15 | 0.13 | 64 | 1017.3 |
| 20260905065518 | 16 | 270 | 8.0 | 24.1 | 0.00 | 0.15 | 0.13 | 62 | 1017.3 |
| 20260905065021 | 16 | 360 | 6.4 | 27.4 | 0.00 | 0.15 | 0.13 | 62 | 1017.2 |
| 20260905064536 | 16 | 260 | 12.9 | 27.4 | 0.00 | 0.15 | 0.13 | 61 | 1017.2 |
| 20260905064016 | 16 | 217 | 9.7 | 25.7 | 0.00 | 0.15 | 0.13 | 63 | 1017.1 |
| 20260905063519 | 16 | 271 | 8.0 | 27.4 | 0.00 | 0.15 | 0.13 | 62 | 1017.1 |
| 20260905063034 | 16 | 279 | 11.3 | 27.4 | 0.00 | 0.15 | 0.13 | 62 | 1017.1 |
| 20260905062522 | 16 | 204 | 9.7 | 25.7 | 0.00 | 0.15 | 0.13 | 62 | 1017.0 |
| 20260905062016 | 16 | 307 | 11.3 | 25.7 | 0.00 | 0.15 | 0.13 | 63 | 1016.9 |
| 20260905061540 | 16 | 254 | 9.7 | 25.7 | 0.00 | 0.15 | 0.13 | 63 | 1016.8 |
| 20260905061017 | 16 | 294 | 9.7 | 32.2 | 0.00 | 0.15 | 0.13 | 63 | 1016.9 |
| 20260905060520 | 16 | 242 | 11.3 | 32.2 | 0.00 | 0.15 | 0.13 | 63 | 1016.8 |
| 20260905060038 | 16 | 258 | 11.3 | 29.0 | 0.00 | 0.15 | 0.13 | 63 | 1016.7 |
| 20260905055518 | 16 | 290 | 11.3 | 33.8 | 0.00 | 0.15 | 0.13 | 62 | 1016.5 |
| 20260905055018 | 16 | 254 | 9.7 | 33.8 | 0.00 | 0.15 | 0.13 | 62 | 1016.4 |
| 20260905054534 | 16 | 282 | 11.3 | 32.2 | 0.00 | 0.15 | 0.13 | 62 | 1016.6 |
| 20260905054015 | 16 | 284 | 12.9 | 32.2 | 0.00 | 0.15 | 0.13 | 61 | 1016.5 |
| 20260905053520 | 17 | 276 | 12.9 | 32.2 | 0.00 | 0.15 | 0.13 | 60 | 1016.5 |
| 20260905053035 | 17 | 259 | 11.3 | 25.7 | 0.00 | 0.15 | 0.13 | 60 | 1016.5 |
| 20260905052522 | 17 | 284 | 11.3 | 27.4 | 0.00 | 0.15 | 0.13 | 59 | 1016.5 |
| 20260905052019 | 16 | 196 | 14.5 | 29.0 | 0.00 | 0.15 | 0.13 | 59 | 1016.6 |
| 20260905051536 | 17 | 271 | 12.9 | 29.0 | 0.00 | 0.15 | 0.13 | 59 | 1016.5 |
| 20260905051017 | 16 | 244 | 12.9 | 29.0 | 0.00 | 0.15 | 0.13 | 61 | 1016.6 |
| 20260905050518 | 16 | 287 | 9.7 | 29.0 | 0.00 | 0.15 | 0.13 | 62 | 1016.6 |
| 20260905050035 | 16 | 269 | 9.7 | 25.7 | 0.00 | 0.15 | 0.13 | 62 | 1016.5 |
| 20260905045516 | 16 | 243 | 8.0 | 29.0 | 0.00 | 0.15 | 0.13 | 61 | 1016.5 |
| 20260905045016 | 17 | 225 | 11.3 | 29.0 | 0.00 | 0.15 | 0.13 | 59 | 1016.4 |
| 20260905044539 | 17 | 300 | 9.7 | 32.2 | 0.00 | 0.15 | 0.13 | 59 | 1016.2 |
| 20260905044017 | 17 | 308 | 12.9 | 32.2 | 0.00 | 0.15 | 0.13 | 57 | 1016.1 |
| 20260905043517 | 17 | 221 | 11.3 | 27.4 | 0.00 | 0.15 | 0.13 | 59 | 1016.1 |
| 20260905043033 | 17 | 245 | 11.3 | 30.6 | 0.00 | 0.15 | 0.13 | 60 | 1016.0 |
| 20260905042516 | 17 | 231 | 11.3 | 30.6 | 0.00 | 0.15 | 0.13 | 60 | 1016.0 |
| 20260905042016 | 17 | 284 | 12.9 | 30.6 | 0.00 | 0.15 | 0.13 | 60 | 1016.0 |
| 20260905041535 | 17 | 284 | 9.7 | 29.0 | 0.00 | 0.15 | 0.13 | 60 | 1015.9 |
| 20260905041020 | 17 | 297 | 12.9 | 29.0 | 0.00 | 0.15 | 0.13 | 60 | 1016.0 |
| 20260905040518 | 16 | 294 | 11.3 | 25.7 | 0.00 | 0.15 | 0.13 | 60 | 1016.0 |
| 20260905040035 | 16 | 297 | 12.9 | 25.7 | 0.00 | 0.15 | 0.13 | 59 | 1016.1 |
| 20260905035520 | 16 | 268 | 9.7 | 33.8 | 0.00 | 0.15 | 0.13 | 58 | 1016.0 |
| 20260905035018 | 16 | 309 | 14.5 | 35.4 | 0.00 | 0.15 | 0.13 | 63 | 1016.0 |
| 20260905034534 | 16 | 360 | 12.9 | 35.4 | 0.00 | 0.15 | 0.13 | 62 | 1016.1 |
| 20260905034017 | 17 | 283 | 12.9 | 29.0 | 0.00 | 0.15 | 0.13 | 61 | 1016.0 |
| 20260905033518 | 17 | 306 | 11.3 | 29.0 | 0.00 | 0.15 | 0.13 | 62 | 1016.1 |
| 20260905033036 | 17 | 261 | 11.3 | 27.4 | 0.00 | 0.15 | 0.13 | 61 | 1016.1 |
| 20260905032518 | 17 | 307 | 9.7 | 32.2 | 0.00 | 0.15 | 0.13 | 60 | 1016.0 |
| 20260905032021 | 17 | 307 | 11.3 | 32.2 | 0.00 | 0.15 | 0.13 | 61 | 1016.1 |
| 20260905031537 | 16 | 285 | 12.9 | 33.8 | 0.00 | 0.15 | 0.13 | 62 | 1016.0 |
| 20260905031017 | 16 | 286 | 9.7 | 33.8 | 0.00 | 0.15 | 0.13 | 62 | 1016.0 |
| 20260905030517 | 16 | 313 | 12.9 | 29.0 | 0.00 | 0.15 | 0.13 | 60 | 1016.0 |
| 20260905030039 | 17 | 249 | 11.3 | 27.4 | 0.00 | 0.15 | 0.13 | 61 | 1016.0 |
| 20260905025516 | 17 | 265 | 11.3 | 27.4 | 0.00 | 0.15 | 0.13 | 60 | 1015.9 |
| 20260905025018 | 17 | 273 | 12.9 | 25.7 | 0.00 | 0.15 | 0.13 | 62 | 1015.9 |
| 20260905024534 | 16 | 271 | 11.3 | 25.7 | 0.00 | 0.15 | 0.13 | 62 | 1015.9 |
| 20260905024016 | 16 | 260 | 8.0 | 20.9 | 0.00 | 0.15 | 0.13 | 63 | 1015.9 |
| 20260905023517 | 16 | 286 | 6.4 | 22.5 | 0.00 | 0.15 | 0.13 | 64 | 1015.9 |
| 20260905023034 | 16 | 301 | 8.0 | 27.4 | 0.00 | 0.15 | 0.13 | 65 | 1015.9 |
| 20260905022520 | 16 | 264 | 4.8 | 27.4 | 0.00 | 0.41 | 0.13 | 67 | 1015.9 |
| 20260905022018 | 16 | 296 | 8.0 | 29.0 | 0.00 | 0.41 | 0.13 | 66 | 1015.9 |
| 20260905021533 | 16 | 296 | 8.0 | 29.0 | 0.00 | 0.41 | 0.13 | 65 | 1015.8 |